STARLINK-34968, 65276

Orbit data source: Space-Track

STARLINK-34968, 65276 is a payload satellite owned by SpaceX/Seattle (US) in SSO that was launched on Fri, 22 Aug 2025 UTC via an FALCON 9 launch vehicle from the Air Force Western Test Range (AFWTR). Payload-class satellites include a variety of spacecraft equipped with specific instruments for various scientific and technological missions. These include communications satellites like Starlink; space stations such as the ISS; scientific satellites like the Hubble; Earth observation satellites from companies like Planet Labs, Umbra, and HawkEye 360; GPS; miniature CubeSats for education and research; and military/defense satellites.

Loading next visibility...
Identifier
65276, 2025-184D
Orbit
SSO
Country
Flag of USUS
Related business
Manufacturer
SpaceX/Seattle
Mission
Operational Commercial Communications
Bus & Motor
STARLINK V2MO, Unknown motor
Mass
575 kg wet, ~530 kg dry
Launch date (UTC)
2025-08-22 (10 months ago)
Launch vehicle
FALCON 9
Launch site
Air Force Western Test Range (AFWTR)
Object type
Payload
Rocket body
Debris
Shape & HBR
Box + 2 Pan, 17.7 m
Radar Cross Section
36.964 m², Large (>1 m²)

Expand to show TLE details & history
Last TLE update: 11 hours ago

TLE from 11 hours ago
0 STARLINK-34968
1 65276U 25184D   26171.38716468  .00005427  00000-0  37971-3 0  9994
2 65276  97.3372 222.7961 0002617  86.6383 273.5144 15.05657046 46755
Epoch: 2026-06-20T09:17Z
TLE epoch observation values (Epoch: 2026-06-20T09:17:31.028Z)
Latitude
Longitude
174.8143°
Altitude
552.452 km
Speed
7.586 km/s
True Right ascension
14h 51m 11s
True Declination
0° 00' 00"
Sunlit
Object was in full shadow at epoch
Visualization orbit readout
Latitude
Unknown
Longitude
Unknown
Altitude
Unknown
Speed
Unknown
Apparent Right ascension
Unknown
Apparent Declination
Unknown
Sunlit
N/A
Visualization observer readout
Local Sidereal Time
07:20:41
Azimuth
Unknown
Elevation
Unknown
Doppler factor
Unknown
Orbital elements
Apogee altitude
548.284 km
Perigee altitude
544.659 km
Semi-major axis
6,924.609 km
Eccentricity
0.00026
Inclination
97.3372°
RAAN
222.7961°
Arg. of periapsis
86.6383°
True anomaly
273.48447°
Mean anomaly
273.5144°
Eccentric anomaly
273.49943°
Mean motion
3.76661 °/min
Orbital period
95.58 mins
BSTAR
0.00037971
Loading maneuver chart data...
Computing Atmospheric mass density...
Loading historical data...
Loading historical data...
Loading historical data...
Loading historical data...
Loading historical data...
Loading historical data...
Loading historical data...

Documentation

Showing up to 5 results
|